Regional Weather Roundup
Issued by NWS

Home | Current Version | Previous Version | Text Only | Print | Product List | Glossary Off
Versions: 1 2 3 4 5 6 7 8 9 10 11 12 13 14 15 16 17 18 19 20 21 22 23 24 25 26 27 28 29

000
ASUS45 KSLC 242010
RWRUT

UTAH REGIONAL WEATHER ROUNDUP
NATIONAL WEATHER SERVICE SALT LAKE CITY UT
200 PM MDT FRI OCT 24 2014

UTZ001>011-023>025-242100-

NORTHERN UTAH

CITY           SKY/WX    TMP DP  RH WIND       PRES   REMARKS
BRIGHAM CITY   SUNNY     71  31  23 S3        30.15F
HILL AFB       SUNNY     73  35  25 SW10      30.17F
LOGAN          SUNNY     71  31  22 VRB3      30.15F
OGDEN          SUNNY     74  34  23 SW10      30.15F
PROVO AIRPORT  SUNNY     75  34  22 S6        30.17F
SALT LAKE CITY MOSUNNY   77  29  17 S17       30.12F
VERNAL         SUNNY     64  37  36 CALM      30.24F
WENDOVER       SUNNY     63  32  31 E6        30.15F
HEBER CITY     SUNNY     73  25  16 SW17      30.20F
WEST JORDAN    SUNNY     75  43  31 SE20      30.15F

$$

UTZ012>022-026-027-242100-

SOUTHERN/CENTRAL UTAH

CITY           SKY/WX    TMP DP  RH WIND       PRES   REMARKS
BLANDING       SUNNY     70  33  25 S5        30.39F
BRYCE CANYON   SUNNY     65  34  31 SE16      30.38F
CEDAR CITY     SUNNY     75  26  16 SW20G25   30.23F
DELTA          SUNNY     77  26  15 S18G24    30.17F
HANKSVILLE       N/A     72  32  23 CALM      30.23F
MILFORD        SUNNY     75  32  20 SW14      30.20F
MOAB/CYNLANDS  SUNNY     73  33  23 CALM      30.21F
PRICE          SUNNY     66  30  26 E3        30.29F
ST GEORGE      CLEAR     73  36  25 CALM      30.15F
KANAB            N/A     75  36  23 S8        30.27F

$$

REGIONAL REPORTS     COLORADO/ARIZONA

CITY           SKY/WX    TMP DP  RH WIND       PRES   REMARKS
CRAIG, CO      SUNNY     72  29  20 SW17G24   30.27F
GRAND JUNCTION SUNNY     69  33  26 CALM      30.25F
RIFLE          SUNNY     67  32  27 CALM      30.28F
MONTROSE       SUNNY     71  33  24 NW6       30.30F
CORTEZ         SUNNY     73  32  22 S6        30.32F
PAGE, AZ       SUNNY     72  34  24 CALM      30.22F
GRAND CANYON   SUNNY     73  23  15 CALM      30.35F
KINGMAN        SUNNY     82  38  20 W3        30.14F
FLAGSTAFF      SUNNY     71  28  20 SW10      30.37F

$$

REGIONAL REPORTS    NEVADA/IDAHO/WYOMING

CITY           SKY/WX    TMP DP  RH WIND       PRES   REMARKS
LAS VEGAS, NV  SUNNY     82  37  20 CALM      30.04F
ELY            SUNNY     73  20  13 SW26      30.21F
ELKO           SUNNY     75  25  15 VRB6      30.10F
POCATELLO, ID  SUNNY     70  36  28 NW7       30.12F
BURLEY         SUNNY     73  35  25 VRB3      30.06F
EVANSTON, WY   SUNNY     69  26  20 SW14G24   30.27F
ROCK SPRINGS   SUNNY     67  21  17 W17       30.24F
KEMMERER       SUNNY     64  23  20 W20       30.27F

$$



USA.gov is the U.S. government's official web portal to all federal, state and local government web resources and services.